Tracking 30685 objects as of 17-Jun-2025
HD Live streaming from Space Station
objects crossing your sky now

NOAA 16 DEB

Track NOAA 16 DEB now!
10-day predictions


NORAD ID: 41079
Int'l Code: 2000-055AN
Perigee: 853.3 km
Apogee: 1,062.3 km
Inclination: 99.1 °
Period: 104.1 minutes
Semi major axis: 7328 km
RCS: Unknown
Launch date: September 21, 2000
Source: United States (US)
Launch site: AIR FORCE WESTERN TEST RANGE (AFWTR)

Note: This is SATELLITE DEBRIS
Your satellite tracking list
Your tracking list is empty




NASA's NSSDC Master Catalog

Two Line Element Set (TLE):
1 41079U 00055AN  25167.32714755  .00000363  00000-0  34030-3 0  9991
2 41079  99.0754 116.2515 0142588 289.6830  68.8989 13.83748041481855
Source of the keplerian elements: AFSPC